Irving, TX

10:32 PM CST on February 07, 2016 (GMT -0600)
Dallas-Fort Worth International

Weather History for KDFW - April, 2013

Change the Weather History Date:

Friday, April 12, 2013

  Actual Average Record
Temperature  
Mean Temperature 59 °F 65 °F  
Max Temperature 76 °F 76 °F 95 °F (1972)
Min Temperature 42 °F 54 °F 31 °F (1957)
Degree Days  
Heating Degree Days 6 3  
Month to date heating degree days 78 50  
Since 1 July heating degree days 1947 2243  
Cooling Degree Days 0 3  
Month to date cooling degree days 19 28  
Year to date cooling degree days 52 67  
Growing Degree Days 8 (Base 50)    
Moisture  
Dew Point 41 °F    
Average Humidity 52    
Maximum Humidity 77    
Minimum Humidity 27    
Precipitation  
Precipitation 0.00 in 0.08 in 1.03 in (1969)
Month to date precipitation 1.11 1.06  
Year to date precipitation 9.12 9.34  
Snow  
Snow 0.00 in 0.00 in 0.00 in ()
Month to date snowfall 0.0 0.0  
Since 1 July snowfall 0.8 1.2  
Snow Depth 0.00 in    
Sea Level Pressure  
Sea Level Pressure 29.91 in    
Wind  
Wind Speed 6 mph (SSE)    
Max Wind Speed 15 mph    
Max Gust Speed 18 mph    
Visibility 10 miles    
Events      
T = Trace of Precipitation, MM = Missing Value Source: NWS Daily Summary

Daily Weather History Graph

Daily Weather History Graph

Search for Another Location

Airport or City:

Trip Planner

Search our weather history database for the weather conditions in past years. The results will help you decide how hot, cold, wet, or windy it might be!

Date:

Astronomy

Apr. 12, 2013 Rise Set
Actual Time 7:01 AM CDT 7:56 PM CDT
Civil Twilight 6:36 AM CDT 8:21 PM CDT
Nautical Twilight 6:06 AM CDT 8:51 PM CDT
Astronomical Twilight 5:36 AM CDT 9:22 PM CDT
Moon 8:19 AM CDT (4/12) 10:20 PM CDT (4/12)
Length of Visible Light 13h 45m
Length of Day
12h 54m
Waxing Crescent, 5% of the Moon is Illuminated
Apr 12
Waxing Crescent
Apr 18
First Quarter
Apr 25
Full
May 2
Last Quarter
May 9
New

Hourly Weather History & Observations

Time (CDT) Temp. Windchill Dew Point Humidity Pressure Visibility Wind Dir Wind Speed Gust Speed Precip Events Conditions
12:53 AM 48.9 °F - 37.9 °F 66% 29.85 in 10.0 mi South 8.1 mph - N/A   Clear
1:53 AM 46.0 °F 42.5 °F 37.9 °F 73% 29.85 in 10.0 mi SSW 6.9 mph - N/A   Clear
2:53 AM 46.9 °F - 37.9 °F 71% 29.86 in 10.0 mi SW 6.9 mph - N/A   Clear
3:53 AM 46.0 °F - 37.9 °F 73% 29.86 in 10.0 mi Calm Calm - N/A   Clear
4:53 AM 46.0 °F 43.1 °F 37.9 °F 73% 29.87 in 10.0 mi SW 5.8 mph - N/A   Partly Cloudy
5:53 AM 46.0 °F - 37.9 °F 73% 29.89 in 10.0 mi Calm Calm - N/A   Partly Cloudy
6:53 AM 44.1 °F - 37.0 °F 76% 29.92 in 10.0 mi Calm Calm - N/A   Partly Cloudy
7:53 AM 48.9 °F - 41.0 °F 74% 29.95 in 10.0 mi North 3.5 mph - N/A   Partly Cloudy
8:53 AM 54.0 °F - 43.0 °F 66% 29.97 in 10.0 mi ESE 3.5 mph - N/A   Partly Cloudy
9:53 AM 57.9 °F - 43.0 °F 58% 29.98 in 10.0 mi Variable 3.5 mph - N/A   Partly Cloudy
10:53 AM 64.0 °F - 41.0 °F 43% 30.00 in 10.0 mi NW 8.1 mph - N/A   Partly Cloudy
11:53 AM 66.9 °F - 44.1 °F 44% 29.99 in 10.0 mi Calm Calm - N/A   Partly Cloudy
12:53 PM 69.1 °F - 42.1 °F 38% 29.97 in 10.0 mi Variable 3.5 mph - N/A   Partly Cloudy
1:53 PM 71.1 °F - 44.1 °F 38% 29.95 in 10.0 mi SSW 4.6 mph - N/A   Partly Cloudy
2:53 PM 73.9 °F - 41.0 °F 30% 29.93 in 10.0 mi ESE 5.8 mph - N/A   Clear
3:53 PM 75.0 °F - 39.0 °F 27% 29.89 in 10.0 mi ESE 6.9 mph - N/A   Partly Cloudy
4:53 PM 75.0 °F - 39.0 °F 27% 29.88 in 10.0 mi SSE 8.1 mph - N/A   Partly Cloudy
5:53 PM 73.9 °F - 43.0 °F 33% 29.87 in 10.0 mi SSE 10.4 mph - N/A   Scattered Clouds
6:53 PM 72.0 °F - 45.0 °F 38% 29.87 in 10.0 mi SE 8.1 mph - N/A   Scattered Clouds
7:53 PM 66.9 °F - 45.0 °F 45% 29.87 in 10.0 mi ESE 8.1 mph - N/A   Scattered Clouds
8:53 PM 64.9 °F - 46.0 °F 50% 29.88 in 10.0 mi SE 10.4 mph - N/A   Scattered Clouds
9:53 PM 63.0 °F - 45.0 °F 52% 29.90 in 10.0 mi SE 9.2 mph - N/A   Partly Cloudy
10:53 PM 61.0 °F - 45.0 °F 56% 29.91 in 10.0 mi ESE 5.8 mph - N/A   Partly Cloudy
11:53 PM 60.1 °F - 43.0 °F 53% 29.92 in 10.0 mi ESE 8.1 mph - N/A   Clear